CW0005 Weather Reports


Display with metric or nautical units.
time (UTC)temp
F
wind
direction
speed
MPH
gust
MPH
rain 1hr
in
rain 24hr
in
rain mn
in
humidity
%
barometer
mb
20260507083021 40 13 0.0 0.0 0.00 0.00 0.00 68 1014.3
20260507081521 39 13 0.0 0.0 0.00 0.00 0.00 70 1014.4
20260507080011 39 13 0.0 0.0 0.00 0.00 0.00 71 1014.6
20260507074515 39 13 0.0 0.0 0.00 0.00 0.00 72 1014.7
20260507073024 39 13 0.0 0.0 0.00 0.00 0.00 72 1014.9
20260507071516 39 13 0.0 0.0 0.00 0.00 0.00 70 1015.1
20260507070023 38 13 0.0 0.0 0.00 0.00 0.00 69 1015.1
20260507064512 39 13 0.0 0.0 0.00 0.00 0.00 68 1015.4
20260507061521 39 13 0.0 0.0 0.00 0.00 0.00 65 1015.5
20260507060008 40 13 0.0 0.0 0.00 0.00 0.00 64 1015.7
20260507054532 40 13 0.0 0.0 0.00 0.00 0.00 64 1015.7
20260507053014 40 13 0.0 0.0 0.00 0.00 0.00 63 1015.7
20260507051514 41 13 0.0 0.0 0.00 0.00 0.00 62 1015.9
20260507050043 41 13 0.0 0.0 0.00 0.00 0.00 61 1015.9
20260507044523 41 13 0.0 0.0 0.00 0.00 0.00 57 1016.0
20260507043019 42 13 0.0 0.0 0.00 0.00 0.00 56 1016.0
20260507040023 43 13 0.0 0.0 0.00 0.00 0.00 55 1016.2
20260507034524 43 13 0.0 0.0 0.00 0.00 0.00 53 1016.3
20260507033026 44 13 0.0 0.0 0.00 0.00 0.00 52 1016.4
20260507031515 45 13 0.0 0.0 0.00 0.00 0.00 50 1016.5
20260507030021 45 13 0.0 0.0 0.00 0.00 0.00 48 1016.6
20260507024504 46 13 0.0 0.0 0.00 0.00 0.00 46 1016.7
20260507023004 47 13 0.0 0.0 0.00 0.00 0.00 45 1016.6
20260507021512 48 13 0.0 0.0 0.00 0.00 0.00 42 1016.4
20260507020005 50 13 0.0 0.0 0.00 0.00 0.00 40 1016.3
20260507014503 51 13 0.0 0.0 0.00 0.00 0.00 38 1016.3
20260507013007 52 13 0.0 0.0 0.00 0.00 0.00 36 1016.2
20260507011514 53 13 0.0 0.0 0.00 0.00 0.00 33 1016.3
20260507010008 54 13 0.0 3.0 0.00 0.00 0.00 32 1016.2
20260507004504 54 13 0.0 4.0 0.00 0.00 0.00 31 1016.3
20260507003002 55 13 2.0 10.0 0.00 0.00 0.00 30 1016.3
20260507001506 55 13 1.0 8.0 0.00 0.00 0.00 30 1016.4
20260507000004 55 13 1.0 9.0 0.00 0.00 0.00 30 1016.5
20260506234504 56 13 2.0 6.0 0.00 0.00 0.00 31 1016.5
20260506233006 56 13 2.0 8.0 0.00 0.00 0.00 30 1016.6
20260506231506 56 13 1.0 6.0 0.00 0.00 0.00 31 1016.6
20260506230006 57 13 2.0 5.0 0.00 0.00 0.00 30 1016.8
20260506224507 57 13 1.0 5.0 0.00 0.00 0.00 29 1016.8
20260506223007 58 13 1.0 10.0 0.00 0.00 0.00 31 1016.9
20260506221507 58 13 1.0 10.0 0.00 0.00 0.00 30 1016.9
20260506220014 58 13 3.0 8.0 0.00 0.00 0.00 30 1016.9
20260506214511 57 13 2.0 10.0 0.00 0.00 0.00 32 1017.0
20260506213007 57 13 1.0 6.0 0.00 0.00 0.00 32 1017.0
20260506211507 57 13 2.0 9.0 0.00 0.00 0.00 30 1017.1
20260506210010 56 13 2.0 9.0 0.00 0.00 0.00 32 1017.3
20260506204511 57 13 2.0 10.0 0.00 0.00 0.00 29 1017.4
20260506203022 57 13 1.0 9.0 0.00 0.00 0.00 34 1017.4
20260506201509 57 13 1.0 8.0 0.00 0.00 0.00 33 1017.3
20260506200007 56 13 3.0 13.0 0.00 0.00 0.00 32 1017.7
20260506194512 56 13 1.0 13.0 0.00 0.00 0.00 35 1017.9
20260506193017 56 13 2.0 12.0 0.00 0.00 0.00 34 1018.0
20260506191512 56 13 1.0 11.0 0.00 0.00 0.00 33 1018.0
20260506190012 56 13 2.0 10.0 0.00 0.00 0.00 36 1018.0
20260506184512 55 13 2.0 11.0 0.00 0.00 0.00 36 1018.2
20260506183013 54 13 2.0 9.0 0.00 0.00 0.00 36 1018.3
20260506181520 55 13 2.0 10.0 0.00 0.00 0.00 35 1018.4
20260506180016 53 13 2.0 8.0 0.00 0.00 0.00 37 1018.5
20260506173004 51 13 2.0 9.0 0.00 0.00 0.00 39 1018.8
20260506171510 52 13 1.0 9.0 0.00 0.00 0.00 39 1018.8
20260506170010 51 13 2.0 8.0 0.00 0.00 0.00 37 1018.8
20260506164517 51 13 4.0 13.0 0.00 0.00 0.00 37 1018.8
20260506163007 51 13 0.0 9.0 0.00 0.00 0.00 39 1018.8
20260506161502 51 13 1.0 10.0 0.00 0.00 0.00 39 1018.7
20260506160007 51 13 2.0 10.0 0.00 0.00 0.00 40 1018.6
20260506154506 51 13 0.0 6.0 0.00 0.00 0.00 43 1018.7
20260506153017 49 13 1.0 8.0 0.00 0.00 0.00 45 1018.6
20260506151525 48 13 1.0 6.0 0.00 0.00 0.00 48 1018.6
20260506150010 48 13 0.0 6.0 0.00 0.00 0.00 52 1018.7
20260506144511 47 13 0.0 4.0 0.00 0.00 0.00 50 1018.6
20260506143025 46 13 0.0 5.0 0.00 0.00 0.00 54 1018.6
20260506141514 45 13 1.0 4.0 0.00 0.00 0.00 55 1018.6
20260506134507 43 13 1.0 4.0 0.00 0.00 0.00 59 1018.2
20260506133009 42 13 0.0 8.0 0.00 0.00 0.00 60 1018.1
20260506131517 41 13 0.0 5.0 0.00 0.00 0.00 62 1018.0
20260506130013 41 13 0.0 3.0 0.00 0.00 0.00 64 1017.8
20260506124517 40 13 0.0 0.0 0.00 0.00 0.00 65 1017.9
20260506123017 40 13 0.0 0.0 0.00 0.00 0.00 66 1017.7
20260506121510 40 13 0.0 0.0 0.00 0.00 0.00 65 1017.5
20260506120018 40 13 0.0 0.0 0.00 0.00 0.00 65 1017.4
20260506114519 40 13 0.0 0.0 0.00 0.00 0.00 63 1017.2
20260506113019 40 13 0.0 0.0 0.00 0.00 0.00 63 1017.1
20260506111518 40 13 0.0 0.0 0.00 0.00 0.00 62 1016.8
20260506110013 40 13 0.0 0.0 0.00 0.00 0.00 62 1016.6
20260506104519 41 13 0.0 1.0 0.00 0.00 0.00 61 1016.3
20260506103018 41 13 0.0 0.0 0.00 0.00 0.00 61 1016.2
20260506100006 40 13 0.0 1.0 0.00 0.00 0.00 62 1015.9
20260506094518 40 13 0.0 0.0 0.00 0.00 0.00 64 1016.0
20260506093005 40 13 0.0 0.0 0.00 0.00 0.00 65 1015.8
20260506091505 39 13 0.0 0.0 0.00 0.00 0.00 65 1015.8
20260506090010 39 13 0.0 0.0 0.00 0.00 0.00 66 1015.6
20260506084515 39 13 0.0 0.0 0.00 0.00 0.00 66 1015.5